Home   Weather   Addis Ababa   Past weeks

Flag for Ethiopia Past Weather in Addis Ababa, Ethiopia — Yesterday and Last 2 Weeks

Now
75 °F

Scattered clouds.


Feels Like: 77 °F
Forecast: 42 / 78 °F
Wind: 12 mph from Southeast

Location: Addis Ababa Airport

Current Time: Jan 21, 2017 at 4:41:32 pm

Latest Report: Jan 21, 2017 at 3:00 pm


Visibility: N/A

Pressure: 30.27 "Hg (23.09 "Hg at 2354m altitude)

Humidity: 25%

Dew Point: 37 °F

Location of Addis AbabaLocation

Past Weather in Addis Ababa — Graph

°F

Addis Ababa Temperature Yesterday

Maximum temperature yesterday: 73 °F (at 1:00 pm)
Minimum temperature yesterday: 46 °F (at 6:00 am)
Average temperature yesterday: 62 °F

High & Low Weather Summary for the Past Weeks

 TemperatureHumidityPressure
High77 °F (Jan 18, 3:00 pm)94% (Jan 8, 11:00 pm)30.39 "Hg (Jan 8, 11:00 pm)
Low39 °F (Jan 7, 4:00 am)5% (Jan 8, 11:00 am)30.21 "Hg (Jan 13, 4:00 pm)
Average59 °F29%30.32 "Hg
* Reported Jan 6 3:00 pm — Jan 21 3:00 pm, Addis Ababa, Weather by CustomWeather, © 2017

Note: Actual official high and low records may vary slightly from our data, if they occured in-between our weather recording intervals... More about our weather records

Advertising

Addis Ababa Weather History for the Previous 24 Hours

Scroll right to see more
 ConditionsComfort  
Time TempWeatherWind HumidityBarometerVisibility
3:00 pm
Sat, Jan 21
75 °FScattered clouds.12 mph25%30.27 "HgN/A
2:00 pm73 °FPassing clouds.12 mph27%30.27 "HgN/A
1:00 pm72 °FSmoke.12 mph31%30.30 "HgN/A
12:00 pm70 °FSmoke.9 mph31%30.36 "HgN/A
11:00 am68 °FSmoke.9 mph30%30.36 "HgN/A
10:00 am64 °FSmoke.9 mph34%30.39 "HgN/A
9:00 am61 °FSmoke.5 mph31%30.36 "HgN/A
8:00 am54 °FSmoke.2 mph47%30.33 "HgN/A
7:00 am48 °FSmoke.5 mph58%30.30 "HgN/A
6:00 am48 °FSmoke.6 mph54%30.30 "HgN/A
4:00 am50 °FSmoke.6 mph50%30.27 "HgN/A
3:00 am50 °FSmoke.7 mph54%30.27 "HgN/A
2:00 am50 °FSmoke.5 mph54%30.30 "HgN/A
12:00 am54 °FSmoke.5 mph51%30.33 "HgN/A
10:00 pm
Fri, Jan 20
57 °FSmoke.7 mph41%30.36 "HgN/A
9:00 pm61 °FSmoke.9 mph39%30.33 "HgN/A
8:00 pm61 °FSmoke.12 mph39%30.33 "HgN/A
6:00 pm70 °FThunderstorms. Cloudy.6 mph29%30.24 "HgN/A
4:00 pm73 °FThunderstorms. Cloudy.7 mph25%30.24 "HgN/A
Weather by CustomWeather, © 2017

See weather overviewHow to use our weather pages